EW2895 Weather Reports


time (UTC)temp
F
wind
direction
speed
knots
gust
knots
rain 1hr
in
rain 24hr
in
rain mn
in
humidity
%
barometer
mb
20260509090008 54 296 0.0 1.7 0.01 0.44 0.06 95 1004.4
20260509085450 54 296 0.0 1.7 0.01 0.44 0.06 95 1004.4
20260509084955 55 296 0.0 0.9 0.01 0.44 0.06 95 1004.3
20260509084951 54 296 0.0 1.7 0.01 0.44 0.06 95 1004.4
20260509084555 55 296 0.0 0.0 0.00 0.43 0.05 95 1004.3
20260509083948 55 296 0.0 0.0 0.00 0.43 0.05 95 1004.4
20260509083553 55 296 0.0 0.0 0.00 0.43 0.05 95 1004.3
20260509083050 55 296 0.0 0.0 0.00 0.43 0.05 95 1004.4
20260509081946 55 296 0.0 0.0 0.00 0.43 0.05 95 1004.4
20260509081421 55 296 0.0 0.9 0.00 0.43 0.05 95 1004.4
20260509080921 55 296 0.0 0.9 0.00 0.43 0.05 95 1004.4
20260509080916 55 296 0.0 0.0 0.00 0.43 0.05 95 1004.4
20260509075915 55 296 0.0 0.0 0.00 0.43 0.05 95 1004.4
20260509075414 55 296 0.0 0.0 0.00 0.43 0.05 95 1004.4
20260509074908 55 296 0.0 0.0 0.00 0.43 0.05 95 1004.4
20260509074902 55 296 0.0 0.0 0.00 0.43 0.05 95 1004.3
20260509073859 55 296 0.0 0.0 0.01 0.43 0.05 95 1004.3
20260509073356 55 296 0.0 0.0 0.01 0.43 0.05 95 1004.3
20260509072842 55 296 0.0 0.0 0.01 0.43 0.05 94 1004.5
20260509072259 55 296 0.0 0.0 0.01 0.43 0.05 94 1004.5
20260509071720 55 296 0.0 0.0 0.02 0.43 0.05 94 1004.5
20260509071135 55 296 0.0 0.0 0.03 0.43 0.05 94 1004.7
20260509070601 55 296 0.0 0.0 0.04 0.43 0.05 94 1004.7
20260509070522 55 296 0.0 0.0 0.04 0.43 0.05 94 1004.7
20260509065443 55 296 0.0 0.0 0.04 0.43 0.05 94 1005.2
20260509064901 55 296 0.0 0.0 0.05 0.43 0.05 94 1005.2
20260509064312 55 296 0.0 0.0 0.05 0.43 0.05 94 1005.3
20260509063751 55 296 0.0 0.0 0.04 0.42 0.04 94 1005.3
20260509063240 55 296 0.0 0.0 0.04 0.42 0.04 94 1005.3
20260509062735 55 296 0.0 0.0 0.04 0.42 0.04 94 1005.5
20260509062228 55 296 0.0 0.0 0.04 0.42 0.04 94 1005.5
20260509061728 55 296 0.0 0.9 0.03 0.41 0.03 94 1005.5
20260509061721 55 296 0.0 1.7 0.02 0.40 0.02 94 1005.8
20260509060715 55 296 0.0 1.7 0.02 0.40 0.02 94 1005.8
20260509060200 55 296 0.0 1.7 0.01 0.39 0.01 94 1005.8
20260509055700 55 296 0.0 3.5 0.01 0.39 0.01 94 1005.8
20260509055200 55 296 0.0 3.5 0.00 0.38 0.00 94 1005.8
20260509054701 55 296 0.0 0.9 0.00 0.38 0.00 94 1005.8
20260509054654 55 296 0.0 0.9 0.00 0.38 0.00 94 1006.1
20260509053636 55 296 0.0 0.9 0.00 0.38 0.00 94 1006.1
20260509053136 55 296 0.0 0.9 0.00 0.38 0.00 94 1006.1
20260509052637 55 296 0.0 0.9 0.00 0.38 0.00 94 1006.1
20260509052107 55 296 0.0 0.0 0.00 0.38 0.00 94 1006.1
20260509051609 55 296 0.0 0.0 0.00 0.38 0.00 94 1006.1
20260509051059 55 296 0.0 0.0 0.00 0.38 0.00 94 1006.0
20260509051041 55 296 0.0 0.9 0.00 0.38 0.00 94 1006.0
20260509050647 55 296 0.0 0.9 0.00 0.38 0.00 94 1006.0
20260509045528 55 296 0.0 0.9 0.00 0.38 0.00 94 1005.9
20260509045013 55 296 0.0 0.0 0.00 0.38 0.00 94 1005.9
20260509044512 55 296 0.0 0.0 0.00 0.38 0.00 94 1006.0
20260509043949 55 296 0.0 0.9 0.00 0.38 0.00 94 1006.0
20260509043410 55 296 0.0 0.9 0.00 0.38 0.00 94 1006.0
20260509042831 55 296 0.0 0.0 0.00 0.38 0.00 94 1005.9
20260509042254 55 296 0.0 0.9 0.00 0.38 0.00 94 1005.9
20260509041717 55 296 0.0 0.9 0.00 0.38 0.00 94 1005.9
20260509041639 55 296 0.0 0.0 0.00 0.38 0.00 94 1005.8
20260509040551 55 296 0.0 0.0 0.00 0.38 0.00 94 1005.8
20260509040014 55 296 0.0 0.0 0.01 0.38 0.00 94 1005.9
20260509035954 55 296 0.0 0.0 0.01 0.38 0.38 94 1005.9
20260509034954 55 296 0.0 0.0 0.01 0.38 0.38 94 1005.9
20260509034947 55 296 0.0 0.0 0.01 0.38 0.38 94 1005.8
20260509034427 55 296 0.0 0.0 0.01 0.38 0.38 94 1005.8
20260509033425 55 296 0.0 0.0 0.01 0.38 0.38 94 1005.8
20260509032914 55 296 0.0 0.0 0.01 0.38 0.38 94 1005.8
20260509032401 55 296 0.0 0.0 0.01 0.38 0.38 94 1005.8
20260509032347 55 296 0.0 0.0 0.02 0.38 0.38 94 1005.8
20260509031333 55 296 0.0 0.0 0.02 0.38 0.38 94 1005.9
20260509030818 55 296 0.0 0.0 0.03 0.38 0.38 94 1005.9
20260509030319 55 296 0.0 0.0 0.03 0.38 0.38 94 1005.9
20260509025805 55 296 0.0 0.0 0.02 0.37 0.37 93 1006.3
20260509025307 55 296 0.0 0.0 0.02 0.37 0.37 93 1006.3
20260509024751 55 296 0.0 0.0 0.02 0.37 0.37 93 1006.3
20260509024246 55 296 0.0 0.0 0.03 0.37 0.37 93 1006.3
20260509023736 55 296 0.0 0.0 0.03 0.37 0.37 93 1006.3
20260509023219 55 296 0.0 0.9 0.03 0.37 0.37 93 1006.3
20260509022717 55 296 0.0 0.9 0.03 0.37 0.37 93 1006.4
20260509022213 55 296 0.0 0.9 0.02 0.36 0.36 93 1006.4
20260509022207 55 296 0.0 3.5 0.02 0.36 0.36 93 1006.4
20260509021159 55 296 0.0 3.5 0.03 0.36 0.36 93 1006.3
20260509020639 55 296 0.0 3.5 0.02 0.35 0.35 93 1006.3
20260509020127 55 296 0.0 3.5 0.03 0.35 0.35 93 1006.1
20260509020123 55 296 0.0 2.6 0.02 0.35 0.35 93 1006.3
20260509015554 55 297 0.0 3.5 0.03 0.35 0.35 93 1006.1
20260509014536 55 296 0.0 0.9 0.04 0.35 0.35 93 1006.1
20260509014525 55 296 0.0 0.9 0.03 0.34 0.34 93 1006.2
20260509014128 55 296 0.0 0.9 0.03 0.34 0.34 93 1006.2
20260509013510 55 296 0.0 0.9 0.03 0.34 0.34 93 1006.2
20260509012502 55 296 0.0 0.9 0.03 0.34 0.34 93 1006.2
20260509011938 55 296 0.0 0.9 0.04 0.34 0.34 93 1006.2
20260509011439 55 296 0.0 0.0 0.04 0.34 0.34 93 1006.4
20260509010906 55 296 0.0 0.9 0.05 0.33 0.33 93 1006.4
20260509010902 55 296 0.0 0.0 0.04 0.33 0.33 93 1006.4
20260509005846 55 296 0.0 0.9 0.06 0.33 0.33 93 1006.4
20260509005837 55 296 0.0 0.0 0.06 0.32 0.32 93 1006.4
20260509004823 55 296 0.0 0.0 0.07 0.32 0.32 93 1006.4
20260509004313 55 296 0.0 0.0 0.06 0.31 0.31 93 1006.2
20260509003759 55 296 0.0 0.0 0.06 0.31 0.31 93 1006.2
20260509003254 55 296 0.0 0.0 0.06 0.31 0.31 92 1006.2
20260509002745 55 296 0.0 0.0 0.06 0.31 0.31 92 1006.4
20260509002232 55 296 0.0 0.0 0.07 0.31 0.31 92 1006.4
20260509001721 55 296 0.0 0.0 0.06 0.30 0.30 92 1006.4
20260509001221 55 296 0.0 0.0 0.07 0.30 0.30 92 1007.0
20260509000707 55 296 0.0 0.0 0.07 0.29 0.29 92 1007.0
20260509000702 55 296 0.0 3.5 0.06 0.27 0.27 92 1007.0
20260508235640 55 296 0.0 3.5 0.06 0.26 0.26 92 1007.0
20260508235136 55 296 0.0 0.0 0.07 0.26 0.26 92 1007.0
20260508234620 55 296 0.0 0.9 0.07 0.25 0.25 91 1007.0
20260508234107 55 296 0.0 0.9 0.07 0.25 0.25 91 1006.9
20260508233605 56 296 0.0 0.0 0.08 0.25 0.25 91 1006.9
20260508233109 56 296 0.0 0.0 0.08 0.25 0.25 91 1006.9
20260508232551 56 296 0.0 0.0 0.10 0.25 0.25 91 1006.7
20260508232034 56 296 0.0 0.0 0.09 0.24 0.24 91 1006.7
20260508232018 56 296 0.0 0.9 0.10 0.24 0.24 91 1007.3
20260508231013 56 296 0.0 0.9 0.10 0.23 0.23 91 1007.3
20260508230505 56 296 0.0 0.0 0.09 0.21 0.22 90 1007.3
20260508225957 56 296 0.0 0.0 0.09 0.20 0.20 90 1007.2
20260508225451 56 296 0.0 0.0 0.10 0.19 0.20 90 1007.2
20260508224948 56 296 0.0 0.0 0.12 0.19 0.19 89 1007.2
20260508224423 56 296 0.0 0.0 0.12 0.18 0.18 89 1007.2
20260508223923 56 296 0.0 0.0 0.13 0.18 0.18 89 1007.2
20260508223912 56 296 0.0 0.0 0.13 0.17 0.17 89 1007.2
20260508223517 56 296 0.0 0.0 0.13 0.16 0.16 88 1007.4
20260508222356 56 296 0.0 0.0 0.12 0.15 0.15 88 1007.4
20260508221851 56 296 0.0 0.0 0.11 0.14 0.14 88 1007.4
20260508221824 56 296 0.0 0.0 0.11 0.14 0.14 87 1007.4
20260508220817 56 296 0.0 0.0 0.11 0.13 0.13 87 1007.4
20260508220811 56 296 0.0 1.7 0.10 0.12 0.12 86 1007.4
20260508215810 56 296 0.0 1.7 0.09 0.10 0.11 86 1007.5
20260508215251 56 296 0.0 2.6 0.07 0.08 0.08 85 1007.5
20260508214752 57 296 0.0 2.6 0.07 0.07 0.07 85 1007.5
20260508214248 57 296 0.0 3.5 0.06 0.06 0.06 84 1007.2
20260508213713 57 296 0.0 3.5 0.04 0.04 0.04 83 1007.2
20260508213208 58 281 0.0 5.2 0.04 0.04 0.04 83 1007.2
20260508212651 58 281 0.0 5.2 0.03 0.03 0.03 81 1007.1
20260508212145 58 354 0.0 3.5 0.03 0.03 0.03 80 1007.1
20260508212139 59 354 0.9 6.1 0.03 0.03 0.03 78 1007.1
20260508211137 59 6 1.7 10.4 0.03 0.03 0.03 76 1007.0
20260508210642 61 331 0.9 7.8 0.02 0.02 0.02 71 1007.0
20260508210638 60 16 0.9 10.4 0.02 0.02 0.02 74 1007.0
20260508205635 61 235 0.0 6.1 0.01 0.01 0.01 66 1006.4
20260508205133 62 229 0.0 1.7 0.00 0.00 0.00 64 1006.4
20260508205117 63 229 0.0 0.9 0.00 0.00 0.00 66 1006.4
20260508204110 63 229 0.0 0.9 0.00 0.00 0.00 64 1006.3
20260508203603 63 229 0.0 1.7 0.00 0.00 0.00 62 1006.3
20260508203108 64 229 0.0 0.9 0.00 0.00 0.00 60 1006.4
20260508203103 64 229 0.0 1.7 0.00 0.00 0.00 62 1006.3
20260508202045 64 229 0.0 1.7 0.00 0.00 0.00 54 1006.4
20260508201526 65 229 0.0 1.7 0.00 0.00 0.00 55 1006.4
20260508201026 65 229 0.0 0.9 0.00 0.00 0.00 56 1006.5
20260508200525 65 229 0.0 0.9 0.00 0.00 0.00 55 1006.5
20260508200023 65 229 0.0 0.9 0.00 0.00 0.00 54 1006.5
20260508195519 65 229 0.0 0.9 0.00 0.00 0.00 54 1006.9
20260508195004 65 229 0.0 0.9 0.00 0.00 0.00 55 1006.9
20260508194948 65 229 0.0 0.9 0.00 0.00 0.00 53 1006.9
20260508194553 65 229 0.0 0.9 0.00 0.00 0.00 52 1006.9
20260508193438 65 229 0.0 0.9 0.00 0.00 0.00 53 1006.9
20260508192919 65 229 0.0 0.9 0.00 0.00 0.00 55 1007.3
20260508192409 64 229 0.0 0.9 0.00 0.00 0.00 56 1007.3
20260508191909 64 229 0.0 0.9 0.00 0.00 0.00 55 1007.3
20260508191351 64 229 0.0 1.7 0.00 0.00 0.00 53 1007.5
20260508190850 64 229 0.0 1.7 0.00 0.00 0.00 53 1007.5
20260508190349 64 229 0.0 0.9 0.00 0.00 0.00 53 1007.5
20260508185847 64 229 0.0 0.9 0.00 0.00 0.00 52 1008.0
20260508185349 63 229 0.9 7.8 0.00 0.00 0.00 54 1008.0
20260508185345 64 229 0.0 5.2 0.00 0.00 0.00 53 1008.0
20260508184331 63 254 1.7 7.8 0.00 0.00 0.00 53 1008.1
20260508184324 63 272 1.7 12.2 0.00 0.00 0.00 52 1008.1
20260508183927 63 287 0.0 5.2 0.00 0.00 0.00 53 1008.1
20260508183322 63 253 0.9 12.2 0.00 0.00 0.00 53 1008.1
20260508182321 63 222 0.0 4.3 0.00 0.00 0.00 54 1008.1
20260508181816 63 222 0.9 4.3 0.00 0.00 0.00 53 1008.1
20260508181313 63 191 0.9 5.2 0.00 0.00 0.00 54 1008.2
20260508180815 63 206 0.0 4.3 0.00 0.00 0.00 52 1008.2
20260508180811 63 191 0.9 5.2 0.00 0.00 0.00 53 1008.2
20260508175804 63 264 0.0 4.3 0.00 0.00 0.00 52 1008.4
20260508175300 63 264 0.9 4.3 0.00 0.00 0.00 51 1008.4
20260508174755 63 271 0.9 3.5 0.00 0.00 0.00 51 1008.4
20260508174252 63 272 0.0 4.3 0.00 0.00 0.00 52 1008.7
20260508173751 63 265 0.9 7.0 0.00 0.00 0.00 52 1008.7
20260508173239 63 265 0.9 7.0 0.00 0.00 0.00 50 1008.7
20260508172741 64 197 1.7 6.1 0.00 0.00 0.00 48 1008.6
20260508172737 63 204 0.9 7.0 0.00 0.00 0.00 51 1008.6
20260508171732 66 209 0.9 5.2 0.00 0.00 0.00 49 1008.7
20260508171728 65 192 1.7 6.1 0.00 0.00 0.00 46 1008.6
20260508171222 66 209 0.9 5.2 0.00 0.00 0.00 52 1008.7
20260508170217 65 185 0.9 5.2 0.00 0.00 0.00 51 1008.7
20260508165715 65 185 0.9 8.7 0.00 0.00 0.00 48 1009.0
20260508165215 65 249 0.9 10.4 0.00 0.00 0.00 47 1009.0
20260508165211 65 295 0.9 8.7 0.00 0.00 0.00 46 1009.0
20260508164201 65 297 0.9 10.4 0.00 0.00 0.00 46 1009.2
20260508163700 65 189 0.9 7.8 0.00 0.00 0.00 46 1009.2
20260508163155 65 241 0.9 7.8 0.00 0.00 0.00 47 1009.2
20260508162652 65 283 0.9 7.0 0.00 0.00 0.00 48 1009.5
20260508162149 65 180 1.7 7.8 0.00 0.00 0.00 47 1009.5
20260508161648 65 148 2.6 7.8 0.00 0.00 0.00 45 1009.5
20260508161149 65 169 1.7 7.8 0.00 0.00 0.00 49 1009.3
20260508160645 65 208 0.9 6.1 0.00 0.00 0.00 47 1009.3
20260508160143 65 237 0.9 6.1 0.00 0.00 0.00 50 1009.3
20260508155627 65 200 0.9 5.2 0.00 0.00 0.00 49 1009.7
20260508155124 65 258 0.9 7.8 0.00 0.00 0.00 49 1009.7
20260508155107 64 231 0.9 7.8 0.00 0.00 0.00 47 1009.7
20260508154104 64 222 0.9 4.3 0.00 0.00 0.00 49 1009.8
20260508153605 63 292 0.9 4.3 0.00 0.00 0.00 51 1009.8
20260508153105 63 226 1.7 7.0 0.00 0.00 0.00 49 1009.8
20260508153101 63 210 1.7 7.0 0.00 0.00 0.00 49 1009.8
20260508152702 63 160 0.9 7.0 0.00 0.00 0.00 48 1009.8
20260508151555 63 253 0.9 8.7 0.00 0.00 0.00 48 1009.8
20260508151055 64 99 0.9 8.7 0.00 0.00 0.00 48 1009.8
20260508150554 64 168 0.9 7.8 0.00 0.00 0.00 50 1009.8
20260508150055 64 259 0.9 7.8 0.00 0.00 0.00 48 1009.8
20260508145554 63 281 0.9 6.1 0.00 0.00 0.00 49 1009.9
20260508145055 63 249 0.9 6.1 0.00 0.00 0.00 48 1009.9
20260508144545 63 220 0.0 2.6 0.00 0.00 0.00 48 1009.9
20260508144026 63 101 0.9 7.0 0.00 0.00 0.00 51 1010.4
20260508143518 63 244 0.9 7.0 0.00 0.00 0.00 47 1010.4
20260508143018 62 327 0.9 4.3 0.00 0.00 0.00 48 1010.4
20260508142517 62 286 0.0 4.3 0.00 0.00 0.00 50 1010.4
20260508142012 62 185 0.0 5.2 0.00 0.00 0.00 51 1010.4
20260508141512 62 229 0.0 5.2 0.00 0.00 0.00 48 1010.4
20260508141007 62 283 0.0 3.5 0.00 0.00 0.00 49 1010.4
20260508140458 62 283 0.0 3.5 0.00 0.00 0.00 50 1010.4
20260508135951 61 282 0.0 2.6 0.00 0.00 0.00 51 1010.7
20260508135908 60 254 0.9 5.2 0.00 0.00 0.00 51 1010.7
20260508135513 60 284 0.0 1.7 0.00 0.00 0.00 52 1010.7
20260508134401 60 245 0.9 5.2 0.00 0.00 0.00 50 1010.8
20260508133901 60 258 0.0 4.3 0.00 0.00 0.00 50 1010.8
20260508133402 59 251 0.0 4.3 0.00 0.00 0.00 52 1010.8
20260508133339 59 258 0.0 4.3 0.00 0.00 0.00 53 1011.0
20260508132334 59 247 0.0 1.7 0.00 0.00 0.00 52 1011.0
20260508131821 58 247 0.0 5.2 0.00 0.00 0.00 53 1011.0
20260508131320 58 283 0.0 5.2 0.00 0.00 0.00 52 1010.9
20260508130818 57 249 0.0 2.6 0.00 0.00 0.00 52 1010.9
20260508130318 57 249 0.0 3.5 0.00 0.00 0.00 54 1010.9
20260508125816 56 243 0.0 3.5 0.00 0.00 0.00 54 1010.9
20260508125317 55 225 0.0 2.6 0.00 0.00 0.00 55 1010.9
20260508124816 55 225 0.0 4.3 0.00 0.00 0.00 57 1010.9
20260508124316 54 254 0.9 13.9 0.00 0.00 0.00 57 1010.7
20260508123806 53 213 0.0 13.9 0.00 0.00 0.00 57 1010.7
20260508123757 53 233 0.0 0.9 0.00 0.00 0.00 59 1010.7
20260508122745 53 233 0.0 0.9 0.00 0.00 0.00 59 1010.8
20260508122221 53 233 0.9 4.3 0.00 0.00 0.00 59 1010.8
20260508121712 52 233 0.9 4.3 0.00 0.00 0.00 59 1010.8
20260508121200 51 320 0.0 3.5 0.00 0.00 0.00 61 1010.8
20260508120701 51 306 0.0 1.7 0.00 0.00 0.00 62 1010.8
20260508120157 50 279 0.0 1.7 0.00 0.00 0.00 63 1010.8
20260508115649 50 281 0.0 0.9 0.00 0.00 0.00 64 1010.7
20260508115123 49 281 0.0 0.0 0.00 0.00 0.00 65 1010.7
20260508114613 49 281 0.0 0.0 0.00 0.00 0.00 64 1010.7
20260508114059 49 281 0.0 0.0 0.00 0.00 0.00 65 1010.7
20260508113531 49 281 0.0 0.0 0.00 0.00 0.00 65 1010.7
20260508113023 49 281 0.0 0.0 0.00 0.00 0.00 65 1010.7
20260508112519 49 281 0.0 4.3 0.00 0.00 0.00 65 1010.7
20260508112514 49 281 0.0 4.3 0.00 0.00 0.00 65 1010.7
20260508111511 48 281 0.0 0.9 0.00 0.00 0.00 65 1010.6
20260508111008 48 281 0.0 0.9 0.00 0.00 0.00 65 1010.6
20260508110505 48 281 0.0 0.0 0.00 0.00 0.00 64 1010.6
20260508110500 48 281 0.0 0.0 0.00 0.00 0.00 64 1010.4
20260508105440 48 281 0.0 0.9 0.00 0.00 0.00 64 1010.4
20260508104934 48 281 0.0 0.9 0.00 0.00 0.00 64 1010.4
20260508104414 48 281 0.0 0.0 0.00 0.00 0.00 65 1010.4
20260508103914 47 281 0.0 0.0 0.00 0.00 0.00 67 1010.4
20260508103355 48 281 0.0 0.0 0.00 0.00 0.00 67 1010.4
20260508102812 48 281 0.0 0.9 0.00 0.00 0.00 67 1010.4
20260508102244 47 281 0.0 0.9 0.00 0.00 0.00 67 1010.4
20260508102216 47 281 0.0 0.0 0.00 0.00 0.00 67 1010.4
20260508101216 47 281 0.0 0.0 0.00 0.00 0.00 68 1010.2
20260508100702 48 281 0.0 0.0 0.00 0.00 0.00 68 1010.2
20260508100152 48 281 0.0 0.0 0.00 0.00 0.00 68 1010.2
20260508095638 48 281 0.0 0.0 0.00 0.00 0.00 67 1010.2
20260508095120 48 281 0.0 0.0 0.00 0.00 0.00 66 1010.2
20260508094602 49 281 0.0 0.0 0.00 0.00 0.00 65 1010.2
20260508094555 49 281 0.0 0.0 0.00 0.00 0.00 65 1010.3
20260508093548 49 281 0.0 0.0 0.00 0.00 0.00 63 1010.3
20260508093048 50 281 0.0 0.0 0.00 0.00 0.00 63 1010.3
20260508092542 50 281 0.0 0.0 0.00 0.00 0.00 62 1010.2
20260508092034 50 281 0.0 0.0 0.00 0.00 0.00 62 1010.2
20260508091528 51 281 0.0 0.0 0.00 0.00 0.00 61 1010.2
20260508091511 51 281 0.0 0.0 0.00 0.00 0.00 60 1010.2
20260508091005 51 281 0.0 0.0 0.00 0.00 0.00 60 1010.2